C/2007 Q1 ( Garradd )

Japanese version
Home page
Updated on December 30, 2007

---------------------------------------------------------------------

* Profile

Discovery Date August 21, 2007
Magnitude 19.4 mag
Discoverer G. J. Garradd (Siding Spring Survey)

* Orbital Elements

T 2006 Dec. 10.844 TT                                   MPC
q   2.97763              (2000.0)            P               Q
                   Peri.  281.837       +0.218339       +0.970495
                   Node     5.932       +0.278558       +0.038501
e   1.0            Incl.   81.871       -0.935272       +0.238028
From 41 observations 2007 Aug. 21-Sept. 14.

* Magnitudes Graph

        m1 = 11.0 + 5 log d + 10.0 log r

---------------------------------------------------------------------

The orbital elements are published on M.P.E.C. 2007-S20.
The magnitudes graphs are made with Comet for Windows.

---------------------------------------------------------------------

Copyright(C) Seiichi Yoshida (comet@aerith.net). All rights reserved.